This is the latest recevied weather packets stored in our database for station/object DO7ZT-13. If no packets are shown the sender has not sent any weather packets the latest 10 day(s).
| Time | Temp. | Humidity | Pressure | Rain* | Wind** | Luminosity | Snow |
|---|---|---|---|---|---|---|---|
| 1777500614 | 0° C | 74% | 1030.8 hPa | 0 mm | 0 m/s | - | - |
| 1777500302 | 0° C | 73% | 1030.8 hPa | 0 mm | 0.45 m/s, 150° | - | - |
| 1777500027 | 0° C | 74% | 1030.6 hPa | 0 mm | 0 m/s | - | - |
| 1777499714 | 0° C | 73% | 1030.6 hPa | 0 mm | 0 m/s | - | - |
| 1777499427 | 0° C | 73% | 1030.6 hPa | 0 mm | 0 m/s | - | - |
| 1777499114 | 0° C | 71% | 1030.6 hPa | 0 mm | 0 m/s | - | - |
| 1777498827 | 0° C | 71% | 1030.6 hPa | 0 mm | 0 m/s | - | - |
| 1777498514 | 0° C | 72% | 1030.6 hPa | 0 mm | 0.45 m/s, 150° | - | - |
| 1777498227 | 0° C | 72% | 1030.4 hPa | 0 mm | 0.45 m/s, 150° | - | - |
| 1777497914 | 0° C | 69% | 1030.4 hPa | 0 mm | 0.45 m/s, 150° | - | - |
| 1777497627 | 0° C | 68% | 1030.4 hPa | 0 mm | 0.45 m/s, 184° | - | - |
| 1777497314 | 0° C | 67% | 1030.3 hPa | 0 mm | 0 m/s | - | - |
| 1777497027 | 0° C | 69% | 1030.3 hPa | 0 mm | 0.45 m/s, 150° | - | - |
| 1777496714 | 0° C | 70% | 1030.3 hPa | 0 mm | 0.45 m/s, 150° | - | - |
| 1777496426 | 1.11° C | 64% | 1030.3 hPa | 0 mm | 0 m/s | - | - |
| 1777496114 | 0° C | 65% | 1030.3 hPa | 0 mm | 0 m/s | - | - |
| 1777495826 | 0° C | 67% | 1030.3 hPa | 0 mm | 0.45 m/s, 150° | - | - |
| 1777495514 | 1.11° C | 65% | 1030.2 hPa | 0 mm | 0 m/s | - | - |
| 1777495226 | 1.11° C | 60% | 1030.2 hPa | 0 mm | 0.45 m/s, 132° | - | - |
| 1777494914 | 1.11° C | 63% | 1030.2 hPa | 0 mm | 0 m/s | - | - |
| 1777494626 | 0° C | 63% | 1030 hPa | 0 mm | 0.45 m/s, 132° | - | - |
| 1777494314 | 0° C | 68% | 1030 hPa | 0 mm | 0.45 m/s, 132° | - | - |
| 1777494027 | 1.11° C | 65% | 1030 hPa | 0 mm | 0.89 m/s, 132° | - | - |
| 1777493714 | 2.22° C | 57% | 1030.2 hPa | 0 mm | 0.45 m/s, 90° | - | - |
| 1777493428 | 1.11° C | 59% | 1030.2 hPa | 0 mm | 0.45 m/s, 78° | - | - |
* Rain latest hour (hover to see other rain measurements)
** Current wind speed in m/s (hover to see current wind gust speed)